Time,TemperatureF,DewpointF,PressureIn,WindDirection,WindDirectionDegrees,WindSpeedMPH,WindSpeedGustMPH,Humidity,HourlyPrecipIn,Conditions,Clouds,dailyrainin,SoftwareType,DateUTC
2013-01-16 00:00:00,32.4,29.0,29.64,WSW,247,0.0,-999.0,91,0.00,,,0.00,Rainwise IP-100,2013-01-16 05:00:00,
2013-01-16 00:01:00,32.4,29.0,29.64,WSW,247,0.0,-999.0,91,0.00,,,0.00,Rainwise IP-100,2013-01-16 05:01:00,
2013-01-16 00:03:00,32.5,31.0,29.64,WSW,247,0.0,-999.0,91,0.00,,,0.00,Rainwise IP-100,2013-01-16 05:03:00,
2013-01-16 00:08:00,32.3,29.0,29.64,WSW,247,1.2,-999.0,91,0.00,,,0.00,Rainwise IP-100,2013-01-16 05:08:00,
2013-01-16 00:13:00,32.0,29.0,29.63,WSW,247,1.9,-999.0,91,0.00,,,0.00,Rainwise IP-100,2013-01-16 05:13:00,
2013-01-16 00:18:00,32.1,29.0,29.63,WSW,247,0.0,-999.0,91,0.00,,,0.00,Rainwise IP-100,2013-01-16 05:18:00,
2013-01-16 00:23:00,32.3,29.0,29.64,WSW,247,0.0,-999.0,91,0.00,,,0.00,Rainwise IP-100,2013-01-16 05:23:00,
2013-01-16 00:28:00,32.5,31.0,29.63,WSW,247,0.0,-999.0,91,0.00,,,0.00,Rainwise IP-100,2013-01-16 05:28:00,
2013-01-16 00:33:00,32.2,29.0,29.63,WSW,247,0.0,-999.0,90,0.00,,,0.00,Rainwise IP-100,2013-01-16 05:33:00,
2013-01-16 00:38:00,31.8,29.0,29.64,WSW,247,1.2,-999.0,91,0.00,,,0.00,Rainwise IP-100,2013-01-16 05:38:00,
2013-01-16 00:43:00,31.6,29.0,29.63,WSW,247,1.4,-999.0,91,0.00,,,0.00,Rainwise IP-100,2013-01-16 05:43:00,
2013-01-16 00:48:00,31.3,28.0,29.64,WSW,247,1.9,-999.0,91,0.00,,,0.00,Rainwise IP-100,2013-01-16 05:48:00,
2013-01-16 00:53:00,31.0,28.0,29.63,WSW,247,2.8,-999.0,91,0.00,,,0.00,Rainwise IP-100,2013-01-16 05:53:00,
2013-01-16 00:58:00,30.9,29.0,29.63,WSW,247,2.1,-999.0,92,0.00,,,0.00,Rainwise IP-100,2013-01-16 05:58:00,
2013-01-16 01:03:00,31.0,29.0,29.63,WSW,247,0.0,-999.0,92,0.00,,,0.00,Rainwise IP-100,2013-01-16 06:03:00,
2013-01-16 01:08:00,31.2,29.0,29.63,WSW,247,0.0,-999.0,93,0.00,,,0.00,Rainwise IP-100,2013-01-16 06:08:00,
2013-01-16 01:13:00,31.3,29.0,29.64,WSW,247,0.0,-999.0,93,0.00,,,0.00,Rainwise IP-100,2013-01-16 06:13:00,
2013-01-16 01:18:00,31.3,29.0,29.64,WSW,247,0.0,-999.0,93,0.00,,,0.00,Rainwise IP-100,2013-01-16 06:18:00,
2013-01-16 01:23:00,31.2,29.0,29.64,WSW,247,0.0,-999.0,93,0.00,,,0.00,Rainwise IP-100,2013-01-16 06:23:00,
2013-01-16 01:28:00,30.9,29.0,29.64,WSW,247,1.9,-999.0,93,0.00,,,0.00,Rainwise IP-100,2013-01-16 06:28:00,
2013-01-16 01:33:00,30.9,29.0,29.64,WSW,247,0.0,-999.0,93,0.00,,,0.00,Rainwise IP-100,2013-01-16 06:33:00,
2013-01-16 01:38:00,31.4,29.0,29.64,WSW,247,0.0,-999.0,93,0.00,,,0.00,Rainwise IP-100,2013-01-16 06:38:00,
2013-01-16 01:43:00,31.3,29.0,29.64,WSW,247,0.0,-999.0,92,0.00,,,0.00,Rainwise IP-100,2013-01-16 06:43:00,
2013-01-16 01:48:00,30.7,29.0,29.64,WSW,247,0.0,-999.0,92,0.00,,,0.00,Rainwise IP-100,2013-01-16 06:48:00,
2013-01-16 01:53:00,30.4,29.0,29.64,WSW,247,0.0,-999.0,92,0.00,,,0.00,Rainwise IP-100,2013-01-16 06:53:00,
2013-01-16 01:58:00,30.2,29.0,29.64,WSW,247,0.0,-999.0,93,0.00,,,0.00,Rainwise IP-100,2013-01-16 06:58:00,
2013-01-16 02:03:00,30.0,29.0,29.65,WSW,247,1.2,-999.0,93,0.00,,,0.00,Rainwise IP-100,2013-01-16 07:03:00,
2013-01-16 02:08:00,30.1,29.0,29.65,WSW,247,0.0,-999.0,93,0.00,,,0.00,Rainwise IP-100,2013-01-16 07:08:00,
2013-01-16 02:13:00,30.2,29.0,29.65,WSW,247,0.0,-999.0,94,0.00,,,0.00,Rainwise IP-100,2013-01-16 07:13:00,
2013-01-16 02:18:00,29.9,29.0,29.65,WSW,247,0.0,-999.0,94,0.00,,,0.00,Rainwise IP-100,2013-01-16 07:18:00,
2013-01-16 02:23:00,29.6,29.0,29.64,WSW,247,0.0,-999.0,94,0.00,,,0.00,Rainwise IP-100,2013-01-16 07:23:00,
2013-01-16 02:28:00,29.4,28.0,29.64,WSW,247,1.4,-999.0,94,0.00,,,0.00,Rainwise IP-100,2013-01-16 07:28:00,
2013-01-16 02:33:00,29.2,28.0,29.64,WSW,247,2.6,-999.0,94,0.00,,,0.00,Rainwise IP-100,2013-01-16 07:33:00,
2013-01-16 02:38:00,29.2,28.0,29.63,WSW,247,1.2,-999.0,94,0.00,,,0.00,Rainwise IP-100,2013-01-16 07:38:00,
2013-01-16 02:43:00,29.7,29.0,29.63,WSW,247,1.2,-999.0,94,0.00,,,0.00,Rainwise IP-100,2013-01-16 07:43:00,
2013-01-16 02:48:00,30.0,29.0,29.64,WSW,247,1.6,-999.0,95,0.00,,,0.00,Rainwise IP-100,2013-01-16 07:48:00,
2013-01-16 02:53:00,29.9,29.0,29.64,WSW,247,1.2,-999.0,95,0.00,,,0.00,Rainwise IP-100,2013-01-16 07:53:00,
2013-01-16 02:58:00,29.6,29.0,29.63,WSW,247,1.2,-999.0,95,0.00,,,0.00,Rainwise IP-100,2013-01-16 07:58:00,
2013-01-16 03:03:00,29.5,29.0,29.63,WSW,247,2.6,-999.0,95,0.00,,,0.00,Rainwise IP-100,2013-01-16 08:03:00,
2013-01-16 03:08:00,29.6,29.0,29.63,WSW,247,0.0,-999.0,95,0.00,,,0.00,Rainwise IP-100,2013-01-16 08:08:00,
2013-01-16 03:13:00,29.6,29.0,29.63,WSW,247,1.2,-999.0,95,0.00,,,0.00,Rainwise IP-100,2013-01-16 08:13:00,
2013-01-16 03:18:00,29.4,28.0,29.63,WSW,247,1.2,-999.0,95,0.00,,,0.00,Rainwise IP-100,2013-01-16 08:18:00,
2013-01-16 03:23:00,29.2,28.0,29.64,WSW,247,0.0,-999.0,95,0.00,,,0.00,Rainwise IP-100,2013-01-16 08:23:00,
2013-01-16 03:28:00,29.1,28.0,29.64,WSW,247,0.0,-999.0,95,0.00,,,0.00,Rainwise IP-100,2013-01-16 08:28:00,
2013-01-16 03:33:00,29.0,28.0,29.65,WSW,247,0.0,-999.0,95,0.00,,,0.00,Rainwise IP-100,2013-01-16 08:33:00,
2013-01-16 03:38:00,28.8,28.0,29.64,WSW,247,0.0,-999.0,95,0.00,,,0.00,Rainwise IP-100,2013-01-16 08:38:00,
2013-01-16 03:43:00,28.8,28.0,29.65,WSW,247,0.0,-999.0,96,0.00,,,0.00,Rainwise IP-100,2013-01-16 08:43:00,
2013-01-16 03:48:00,28.6,28.0,29.65,WSW,247,0.0,-999.0,96,0.00,,,0.00,Rainwise IP-100,2013-01-16 08:48:00,
2013-01-16 03:53:00,28.4,26.0,29.65,WSW,247,1.2,-999.0,96,0.00,,,0.00,Rainwise IP-100,2013-01-16 08:53:00,
2013-01-16 03:55:00,28.4,26.0,29.65,WSW,247,1.6,-999.0,96,0.00,,,0.00,Rainwise IP-100,2013-01-16 08:55:00,
2013-01-16 04:00:00,28.3,26.0,29.65,WSW,247,0.0,-999.0,96,0.00,,,0.00,Rainwise IP-100,2013-01-16 09:00:00,
2013-01-16 04:05:00,28.3,26.0,29.65,WSW,247,1.6,-999.0,96,0.00,,,0.00,Rainwise IP-100,2013-01-16 09:05:00,
2013-01-16 04:10:00,28.1,26.0,29.65,WSW,247,1.6,-999.0,96,0.00,,,0.00,Rainwise IP-100,2013-01-16 09:10:00,
2013-01-16 04:16:00,28.2,26.0,29.65,WSW,247,1.9,-999.0,96,0.00,,,0.00,Rainwise IP-100,2013-01-16 09:16:00,
2013-01-16 04:21:00,28.3,26.0,29.65,WSW,247,3.3,-999.0,96,0.00,,,0.00,Rainwise IP-100,2013-01-16 09:21:00,
2013-01-16 04:26:00,28.5,28.0,29.65,WSW,247,2.1,-999.0,96,0.00,,,0.00,Rainwise IP-100,2013-01-16 09:26:00,
2013-01-16 04:31:00,28.5,28.0,29.64,WSW,247,0.0,-999.0,96,0.00,,,0.00,Rainwise IP-100,2013-01-16 09:31:00,
2013-01-16 04:36:00,28.5,28.0,29.64,WSW,247,1.2,-999.0,96,0.00,,,0.00,Rainwise IP-100,2013-01-16 09:36:00,
2013-01-16 04:41:00,28.6,28.0,29.64,WSW,247,0.0,-999.0,96,0.00,,,0.00,Rainwise IP-100,2013-01-16 09:41:00,
2013-01-16 04:46:00,28.7,29.0,29.64,WSW,247,0.0,-999.0,97,0.00,,,0.00,Rainwise IP-100,2013-01-16 09:46:00,
2013-01-16 04:51:00,28.8,29.0,29.64,WSW,247,0.0,-999.0,97,0.00,,,0.00,Rainwise IP-100,2013-01-16 09:51:00,
2013-01-16 04:56:00,28.6,29.0,29.65,WSW,247,0.0,-999.0,97,0.00,,,0.00,Rainwise IP-100,2013-01-16 09:56:00,
2013-01-16 05:01:00,28.1,26.0,29.64,WSW,247,0.0,-999.0,96,0.00,,,0.00,Rainwise IP-100,2013-01-16 10:01:00,
2013-01-16 05:06:00,27.7,26.0,29.65,WSW,247,1.6,-999.0,96,0.00,,,0.00,Rainwise IP-100,2013-01-16 10:06:00,
2013-01-16 05:11:00,27.6,26.0,29.65,WSW,247,0.0,-999.0,96,0.00,,,0.00,Rainwise IP-100,2013-01-16 10:11:00,
2013-01-16 05:16:00,27.7,28.0,29.65,WSW,247,0.0,-999.0,97,0.00,,,0.00,Rainwise IP-100,2013-01-16 10:16:00,
2013-01-16 05:21:00,27.8,28.0,29.65,WSW,247,0.0,-999.0,97,0.00,,,0.00,Rainwise IP-100,2013-01-16 10:21:00,
2013-01-16 05:26:00,27.8,28.0,29.65,WSW,247,0.0,-999.0,97,0.00,,,0.00,Rainwise IP-100,2013-01-16 10:26:00,
2013-01-16 05:31:00,27.6,28.0,29.64,WSW,247,2.6,-999.0,97,0.00,,,0.00,Rainwise IP-100,2013-01-16 10:31:00,
2013-01-16 05:36:00,27.7,28.0,29.65,WSW,247,0.0,-999.0,97,0.00,,,0.00,Rainwise IP-100,2013-01-16 10:36:00,
2013-01-16 05:41:00,27.9,28.0,29.65,WSW,247,0.0,-999.0,97,0.00,,,0.00,Rainwise IP-100,2013-01-16 10:41:00,
2013-01-16 05:46:00,27.9,28.0,29.65,WSW,247,0.0,-999.0,97,0.00,,,0.00,Rainwise IP-100,2013-01-16 10:46:00,
2013-01-16 05:51:00,27.7,28.0,29.65,WSW,247,0.0,-999.0,97,0.00,,,0.00,Rainwise IP-100,2013-01-16 10:51:00,
2013-01-16 05:56:00,27.7,28.0,29.65,WSW,247,0.0,-999.0,97,0.00,,,0.00,Rainwise IP-100,2013-01-16 10:56:00,
2013-01-16 06:01:00,27.7,28.0,29.65,WSW,247,2.1,-999.0,98,0.00,,,0.00,Rainwise IP-100,2013-01-16 11:01:00,
2013-01-16 06:06:00,27.4,28.0,29.65,WSW,247,0.0,-999.0,98,0.00,,,0.00,Rainwise IP-100,2013-01-16 11:06:00,
2013-01-16 06:11:00,27.3,28.0,29.65,WSW,247,0.0,-999.0,98,0.00,,,0.00,Rainwise IP-100,2013-01-16 11:11:00,
2013-01-16 06:16:00,27.2,28.0,29.64,SSW,202,0.0,-999.0,97,0.00,,,0.00,Rainwise IP-100,2013-01-16 11:16:00,
2013-01-16 06:21:00,27.2,28.0,29.64,SSW,202,0.0,-999.0,97,0.00,,,0.00,Rainwise IP-100,2013-01-16 11:21:00,
2013-01-16 06:26:00,27.2,28.0,29.64,SSW,202,0.0,-999.0,97,0.00,,,0.00,Rainwise IP-100,2013-01-16 11:26:00,
2013-01-16 06:31:00,27.4,28.0,29.64,SSW,202,0.0,-999.0,98,0.00,,,0.00,Rainwise IP-100,2013-01-16 11:31:00,
2013-01-16 06:36:00,27.5,28.0,29.64,SSW,202,0.0,-999.0,98,0.00,,,0.00,Rainwise IP-100,2013-01-16 11:36:00,
2013-01-16 06:41:00,27.3,28.0,29.64,SSW,202,0.0,-999.0,98,0.00,,,0.00,Rainwise IP-100,2013-01-16 11:41:00,
2013-01-16 06:46:00,27.0,28.0,29.64,SSW,202,0.0,-999.0,98,0.00,,,0.00,Rainwise IP-100,2013-01-16 11:46:00,
2013-01-16 06:51:00,26.9,28.0,29.64,SSW,202,0.0,-999.0,98,0.00,,,0.00,Rainwise IP-100,2013-01-16 11:51:00,
2013-01-16 06:56:00,26.8,28.0,29.64,SSW,202,0.0,-999.0,98,0.00,,,0.00,Rainwise IP-100,2013-01-16 11:56:00,
2013-01-16 07:01:00,26.7,28.0,29.63,SSW,202,0.0,-999.0,98,0.00,,,0.00,Rainwise IP-100,2013-01-16 12:01:00,
2013-01-16 07:06:00,26.8,28.0,29.64,SSW,202,1.6,-999.0,98,0.00,,,0.00,Rainwise IP-100,2013-01-16 12:06:00,
2013-01-16 07:11:00,26.9,28.0,29.63,SSW,202,0.0,-999.0,98,0.00,,,0.00,Rainwise IP-100,2013-01-16 12:11:00,
2013-01-16 07:16:00,27.1,28.0,29.63,SSW,202,0.0,-999.0,98,0.00,,,0.00,Rainwise IP-100,2013-01-16 12:16:00,
2013-01-16 07:21:00,27.1,28.0,29.63,SSW,202,1.9,-999.0,98,0.00,,,0.00,Rainwise IP-100,2013-01-16 12:21:00,
2013-01-16 07:26:00,26.9,28.0,29.64,SSW,202,0.0,-999.0,98,0.00,,,0.00,Rainwise IP-100,2013-01-16 12:26:00,
2013-01-16 07:31:00,26.8,28.0,29.63,SSW,202,0.0,-999.0,98,0.00,,,0.00,Rainwise IP-100,2013-01-16 12:31:00,
2013-01-16 07:36:00,26.7,28.0,29.63,SSW,202,0.0,-999.0,98,0.00,,,0.00,Rainwise IP-100,2013-01-16 12:36:00,
2013-01-16 07:41:00,26.6,28.0,29.63,SSW,202,0.0,-999.0,98,0.00,,,0.00,Rainwise IP-100,2013-01-16 12:41:00,
2013-01-16 07:46:00,26.4,26.0,29.62,SSW,202,0.0,-999.0,98,0.00,,,0.00,Rainwise IP-100,2013-01-16 12:46:00,
2013-01-16 07:51:00,26.1,26.0,29.62,SSW,202,0.0,-999.0,98,0.00,,,0.00,Rainwise IP-100,2013-01-16 12:51:00,
2013-01-16 07:56:00,25.8,26.0,29.63,SSW,202,0.0,-999.0,98,0.00,,,0.00,Rainwise IP-100,2013-01-16 12:56:00,
2013-01-16 08:01:00,25.7,26.0,29.62,SSW,202,0.0,-999.0,98,0.00,,,0.00,Rainwise IP-100,2013-01-16 13:01:00,
2013-01-16 08:06:00,26.1,26.0,29.62,SSW,202,0.0,-999.0,98,0.00,,,0.00,Rainwise IP-100,2013-01-16 13:06:00,
2013-01-16 08:11:00,26.3,26.0,29.62,SSW,202,0.0,-999.0,99,0.00,,,0.00,Rainwise IP-100,2013-01-16 13:11:00,
2013-01-16 08:16:00,26.2,26.0,29.62,SSW,202,0.0,-999.0,99,0.00,,,0.00,Rainwise IP-100,2013-01-16 13:16:00,
2013-01-16 08:21:00,26.3,26.0,29.62,SSW,202,0.0,-999.0,99,0.00,,,0.00,Rainwise IP-100,2013-01-16 13:21:00,
2013-01-16 08:26:00,26.3,26.0,29.62,SSW,202,0.0,-999.0,99,0.00,,,0.00,Rainwise IP-100,2013-01-16 13:26:00,
2013-01-16 08:31:00,26.1,26.0,29.61,SSW,202,0.0,-999.0,99,0.00,,,0.00,Rainwise IP-100,2013-01-16 13:31:00,
2013-01-16 08:36:00,26.2,26.0,29.61,SSW,202,0.0,-999.0,99,0.00,,,0.00,Rainwise IP-100,2013-01-16 13:36:00,
2013-01-16 08:41:00,26.3,26.0,29.61,SSW,202,1.4,-999.0,99,0.00,,,0.00,Rainwise IP-100,2013-01-16 13:41:00,
2013-01-16 08:46:00,26.2,26.0,29.61,SSW,202,0.0,-999.0,99,0.00,,,0.00,Rainwise IP-100,2013-01-16 13:46:00,
2013-01-16 08:51:00,26.3,26.0,29.61,SSW,202,0.0,-999.0,99,0.00,,,0.00,Rainwise IP-100,2013-01-16 13:51:00,
2013-01-16 08:56:00,26.4,26.0,29.61,South,180,0.0,-999.0,99,0.00,,,0.00,Rainwise IP-100,2013-01-16 13:56:00,
2013-01-16 09:01:00,26.3,26.0,29.61,South,180,0.0,-999.0,99,0.00,,,0.00,Rainwise IP-100,2013-01-16 14:01:00,
2013-01-16 09:06:00,26.1,26.0,29.61,SE,135,0.0,-999.0,99,0.00,,,0.00,Rainwise IP-100,2013-01-16 14:06:00,
2013-01-16 09:11:00,26.1,26.0,29.61,SE,135,0.0,-999.0,99,0.00,,,0.00,Rainwise IP-100,2013-01-16 14:11:00,
2013-01-16 09:16:00,26.0,26.0,29.61,SE,135,0.0,-999.0,99,0.00,,,0.00,Rainwise IP-100,2013-01-16 14:16:00,
2013-01-16 09:21:00,25.8,26.0,29.61,SSW,202,1.6,-999.0,99,0.00,,,0.00,Rainwise IP-100,2013-01-16 14:21:00,
2013-01-16 09:26:00,25.6,26.0,29.61,SSW,202,1.6,-999.0,99,0.00,,,0.00,Rainwise IP-100,2013-01-16 14:26:00,
2013-01-16 09:31:00,25.5,26.0,29.61,SSW,202,0.0,-999.0,99,0.00,,,0.00,Rainwise IP-100,2013-01-16 14:31:00,
2013-01-16 09:36:00,25.7,26.0,29.61,SSW,202,1.4,-999.0,99,0.00,,,0.00,Rainwise IP-100,2013-01-16 14:36:00,
2013-01-16 09:41:00,25.7,26.0,29.61,SSW,202,1.6,-999.0,99,0.00,,,0.00,Rainwise IP-100,2013-01-16 14:41:00,
2013-01-16 09:46:00,26.2,26.0,29.61,SSW,202,0.0,-999.0,99,0.00,,,0.00,Rainwise IP-100,2013-01-16 14:46:00,
2013-01-16 09:51:00,26.5,28.0,29.61,SSW,202,0.0,-999.0,99,0.00,,,0.00,Rainwise IP-100,2013-01-16 14:51:00,
2013-01-16 09:56:00,26.2,26.0,29.61,SSW,202,0.0,-999.0,99,0.00,,,0.00,Rainwise IP-100,2013-01-16 14:56:00,
2013-01-16 10:01:00,25.9,26.0,29.61,SSW,202,0.0,-999.0,99,0.00,,,0.00,Rainwise IP-100,2013-01-16 15:01:00,
2013-01-16 10:06:00,25.7,26.0,29.61,SSW,202,0.0,-999.0,99,0.00,,,0.00,Rainwise IP-100,2013-01-16 15:06:00,
2013-01-16 10:11:00,25.7,26.0,29.61,SSW,202,0.0,-999.0,99,0.00,,,0.00,Rainwise IP-100,2013-01-16 15:11:00,
2013-01-16 10:16:00,25.9,26.0,29.62,SSW,202,0.0,-999.0,99,0.00,,,0.00,Rainwise IP-100,2013-01-16 15:16:00,
2013-01-16 10:21:00,26.0,26.0,29.62,SSW,202,0.0,-999.0,99,0.00,,,0.00,Rainwise IP-100,2013-01-16 15:21:00,
2013-01-16 10:26:00,25.8,26.0,29.63,SSW,202,0.0,-999.0,99,0.00,,,0.00,Rainwise IP-100,2013-01-16 15:26:00,
2013-01-16 10:31:00,25.6,26.0,29.63,SSW,202,0.0,-999.0,99,0.00,,,0.00,Rainwise IP-100,2013-01-16 15:31:00,
2013-01-16 10:36:00,25.5,26.0,29.63,SSW,202,0.0,-999.0,99,0.00,,,0.00,Rainwise IP-100,2013-01-16 15:36:00,
2013-01-16 10:41:00,25.5,26.0,29.63,SSW,202,1.2,-999.0,99,0.00,,,0.00,Rainwise IP-100,2013-01-16 15:41:00,
2013-01-16 10:46:00,25.7,26.0,29.62,SSW,202,1.6,-999.0,99,0.00,,,0.00,Rainwise IP-100,2013-01-16 15:46:00,
2013-01-16 10:51:00,26.1,26.0,29.63,SSW,202,0.0,-999.0,99,0.00,,,0.00,Rainwise IP-100,2013-01-16 15:51:00,
2013-01-16 10:56:00,26.6,28.0,29.63,SSW,202,0.0,-999.0,99,0.00,,,0.00,Rainwise IP-100,2013-01-16 15:56:00,
2013-01-16 11:01:00,26.9,28.0,29.63,SSW,202,0.0,-999.0,99,0.00,,,0.00,Rainwise IP-100,2013-01-16 16:01:00,
2013-01-16 11:06:00,27.4,28.0,29.63,SSW,202,0.0,-999.0,99,0.00,,,0.00,Rainwise IP-100,2013-01-16 16:06:00,
2013-01-16 11:11:00,28.0,28.0,29.64,SSW,202,0.0,-999.0,100,0.00,,,0.00,Rainwise IP-100,2013-01-16 16:11:00,
2013-01-16 11:16:00,28.2,28.0,29.64,SSW,202,0.0,-999.0,99,0.00,,,0.00,Rainwise IP-100,2013-01-16 16:16:00,
2013-01-16 11:21:00,28.3,28.0,29.64,SSW,202,1.4,-999.0,99,0.00,,,0.00,Rainwise IP-100,2013-01-16 16:21:00,
2013-01-16 11:26:00,28.5,29.0,29.64,SSW,202,0.0,-999.0,99,0.00,,,0.00,Rainwise IP-100,2013-01-16 16:26:00,
2013-01-16 11:31:00,28.9,29.0,29.64,SSW,202,0.0,-999.0,99,0.00,,,0.00,Rainwise IP-100,2013-01-16 16:31:00,
2013-01-16 11:36:00,29.9,31.0,29.64,ESE,112,2.1,-999.0,99,0.00,,,0.00,Rainwise IP-100,2013-01-16 16:36:00,
2013-01-16 11:41:00,30.9,31.0,29.65,ESE,112,0.0,-999.0,98,0.00,,,0.00,Rainwise IP-100,2013-01-16 16:41:00,
2013-01-16 11:46:00,31.6,32.0,29.65,ESE,112,0.0,-999.0,98,0.00,,,0.00,Rainwise IP-100,2013-01-16 16:46:00,
2013-01-16 11:51:00,32.5,33.0,29.65,ESE,112,0.0,-999.0,98,0.00,,,0.00,Rainwise IP-100,2013-01-16 16:51:00,
2013-01-16 11:56:00,33.4,32.0,29.65,ESE,112,2.1,-999.0,97,0.00,,,0.00,Rainwise IP-100,2013-01-16 16:56:00,
2013-01-16 12:01:00,33.8,33.0,29.65,ESE,112,1.2,-999.0,95,0.00,,,0.00,Rainwise IP-100,2013-01-16 17:01:00,
2013-01-16 12:06:00,34.4,33.0,29.65,ESE,112,0.0,-999.0,95,0.00,,,0.00,Rainwise IP-100,2013-01-16 17:06:00,
2013-01-16 12:11:00,35.3,33.0,29.65,SSW,202,0.0,-999.0,97,0.00,,,0.00,Rainwise IP-100,2013-01-16 17:11:00,
2013-01-16 12:16:00,36.3,35.0,29.65,WNW,292,0.0,-999.0,97,0.00,,,0.00,Rainwise IP-100,2013-01-16 17:16:00,
2013-01-16 12:21:00,37.3,36.0,29.65,WNW,292,0.0,-999.0,97,0.00,,,0.00,Rainwise IP-100,2013-01-16 17:21:00,
2013-01-16 12:26:00,38.4,37.0,29.65,WNW,292,0.0,-999.0,97,0.00,,,0.00,Rainwise IP-100,2013-01-16 17:26:00,
2013-01-16 12:31:00,39.3,38.0,29.65,WNW,292,0.0,-999.0,94,0.00,,,0.00,Rainwise IP-100,2013-01-16 17:31:00,
2013-01-16 12:36:00,39.8,38.0,29.65,ESE,112,2.1,-999.0,90,0.00,,,0.00,Rainwise IP-100,2013-01-16 17:36:00,
2013-01-16 12:41:00,39.8,37.0,29.66,SE,135,2.8,-999.0,88,0.00,,,0.00,Rainwise IP-100,2013-01-16 17:41:00,
2013-01-16 12:46:00,40.0,37.0,29.65,SSE,157,1.9,-999.0,87,0.00,,,0.00,Rainwise IP-100,2013-01-16 17:46:00,
2013-01-16 12:51:00,41.1,37.0,29.65,SSE,157,0.0,-999.0,86,0.00,,,0.00,Rainwise IP-100,2013-01-16 17:51:00,
2013-01-16 12:56:00,42.3,38.0,29.66,SSE,157,0.0,-999.0,85,0.00,,,0.00,Rainwise IP-100,2013-01-16 17:56:00,
2013-01-16 13:01:00,43.2,38.0,29.65,SSE,157,0.0,-999.0,83,0.00,,,0.00,Rainwise IP-100,2013-01-16 18:01:00,
2013-01-16 13:06:00,44.0,39.0,29.65,ESE,112,0.0,-999.0,82,0.00,,,0.00,Rainwise IP-100,2013-01-16 18:06:00,
2013-01-16 13:11:00,45.1,39.0,29.65,ESE,112,0.0,-999.0,80,0.00,,,0.00,Rainwise IP-100,2013-01-16 18:11:00,
2013-01-16 13:16:00,46.4,39.0,29.65,ESE,112,1.4,-999.0,78,0.00,,,0.00,Rainwise IP-100,2013-01-16 18:16:00,
2013-01-16 13:21:00,47.2,39.0,29.65,SE,135,0.0,-999.0,75,0.00,,,0.00,Rainwise IP-100,2013-01-16 18:21:00,
2013-01-16 13:26:00,47.7,39.0,29.64,ESE,112,0.0,-999.0,73,0.00,,,0.00,Rainwise IP-100,2013-01-16 18:26:00,
2013-01-16 13:31:00,48.9,40.0,29.64,ESE,112,0.0,-999.0,70,0.00,,,0.00,Rainwise IP-100,2013-01-16 18:31:00,
2013-01-16 13:36:00,50.4,39.0,29.64,ESE,112,0.0,-999.0,65,0.00,,,0.00,Rainwise IP-100,2013-01-16 18:36:00,
2013-01-16 13:41:00,51.1,37.0,29.64,ESE,112,0.0,-999.0,57,0.00,,,0.00,Rainwise IP-100,2013-01-16 18:41:00,
2013-01-16 13:46:00,51.7,35.0,29.64,SSE,157,2.3,-999.0,52,0.00,,,0.00,Rainwise IP-100,2013-01-16 18:46:00,
2013-01-16 13:51:00,52.3,35.0,29.63,SSE,157,0.0,-999.0,50,0.00,,,0.00,Rainwise IP-100,2013-01-16 18:51:00,
2013-01-16 13:56:00,52.5,33.0,29.63,SSE,157,2.8,-999.0,48,0.00,,,0.00,Rainwise IP-100,2013-01-16 18:56:00,
2013-01-16 14:01:00,52.7,33.0,29.63,SSE,157,3.7,-999.0,48,0.00,,,0.00,Rainwise IP-100,2013-01-16 19:01:00,
2013-01-16 14:06:00,52.9,33.0,29.62,SSE,157,1.6,-999.0,48,0.00,,,0.00,Rainwise IP-100,2013-01-16 19:06:00,
2013-01-16 14:11:00,53.1,33.0,29.62,SSE,157,2.6,-999.0,47,0.00,,,0.00,Rainwise IP-100,2013-01-16 19:11:00,
2013-01-16 14:16:00,53.5,33.0,29.62,ESE,112,1.9,-999.0,47,0.00,,,0.00,Rainwise IP-100,2013-01-16 19:16:00,
2013-01-16 14:21:00,54.1,35.0,29.62,ESE,112,1.9,-999.0,47,0.00,,,0.00,Rainwise IP-100,2013-01-16 19:21:00,
2013-01-16 14:26:00,54.6,35.0,29.61,SSE,157,2.3,-999.0,47,0.00,,,0.00,Rainwise IP-100,2013-01-16 19:26:00,
2013-01-16 14:31:00,55.2,35.0,29.61,SSW,202,2.8,-999.0,46,0.00,,,0.00,Rainwise IP-100,2013-01-16 19:31:00,
2013-01-16 14:36:00,55.6,35.0,29.61,SSE,157,2.8,-999.0,45,0.00,,,0.00,Rainwise IP-100,2013-01-16 19:36:00,
2013-01-16 14:41:00,56.0,35.0,29.60,SSE,157,1.6,-999.0,44,0.00,,,0.00,Rainwise IP-100,2013-01-16 19:41:00,
2013-01-16 14:46:00,56.2,33.0,29.60,ESE,112,2.1,-999.0,43,0.00,,,0.00,Rainwise IP-100,2013-01-16 19:46:00,
2013-01-16 14:51:00,56.6,35.0,29.60,SSW,202,1.4,-999.0,43,0.00,,,0.00,Rainwise IP-100,2013-01-16 19:51:00,
2013-01-16 14:56:00,57.5,36.0,29.60,SSE,157,1.6,-999.0,43,0.00,,,0.00,Rainwise IP-100,2013-01-16 19:56:00,
2013-01-16 15:01:00,57.9,36.0,29.59,ESE,112,2.8,-999.0,43,0.00,,,0.00,Rainwise IP-100,2013-01-16 20:01:00,
2013-01-16 15:06:00,58.0,36.0,29.59,ESE,112,1.9,-999.0,43,0.00,,,0.00,Rainwise IP-100,2013-01-16 20:06:00,
2013-01-16 15:11:00,58.4,36.0,29.59,SSE,157,1.2,-999.0,43,0.00,,,0.00,Rainwise IP-100,2013-01-16 20:11:00,
2013-01-16 15:16:00,59.0,36.0,29.58,SSW,202,3.0,-999.0,42,0.00,,,0.00,Rainwise IP-100,2013-01-16 20:16:00,
2013-01-16 15:21:00,59.5,35.0,29.58,SSW,202,3.5,-999.0,40,0.00,,,0.00,Rainwise IP-100,2013-01-16 20:21:00,
2013-01-16 15:26:00,59.8,35.0,29.57,South,180,2.3,-999.0,39,0.00,,,0.00,Rainwise IP-100,2013-01-16 20:26:00,
2013-01-16 15:31:00,59.8,35.0,29.57,South,180,0.0,-999.0,38,0.00,,,0.00,Rainwise IP-100,2013-01-16 20:31:00,
2013-01-16 15:36:00,60.2,35.0,29.57,ESE,112,2.6,-999.0,38,0.00,,,0.00,Rainwise IP-100,2013-01-16 20:36:00,
2013-01-16 15:41:00,60.4,35.0,29.57,SSE,157,4.2,-999.0,38,0.00,,,0.00,Rainwise IP-100,2013-01-16 20:41:00,
2013-01-16 15:46:00,60.3,35.0,29.56,South,180,1.6,-999.0,38,0.00,,,0.00,Rainwise IP-100,2013-01-16 20:46:00,
2013-01-16 15:51:00,60.6,35.0,29.56,SSE,157,4.9,-999.0,38,0.00,,,0.00,Rainwise IP-100,2013-01-16 20:51:00,
2013-01-16 15:56:00,60.8,35.0,29.56,SSE,157,3.5,-999.0,37,0.00,,,0.00,Rainwise IP-100,2013-01-16 20:56:00,
2013-01-16 16:01:00,61.1,33.0,29.56,SSE,157,4.0,-999.0,36,0.00,,,0.00,Rainwise IP-100,2013-01-16 21:01:00,
2013-01-16 16:06:00,61.1,33.0,29.55,SSE,157,4.2,-999.0,36,0.00,,,0.00,Rainwise IP-100,2013-01-16 21:06:00,
2013-01-16 16:11:00,61.2,33.0,29.55,SSW,202,2.8,-999.0,36,0.00,,,0.00,Rainwise IP-100,2013-01-16 21:11:00,
2013-01-16 16:16:00,61.8,35.0,29.55,SW,225,2.6,-999.0,36,0.00,,,0.00,Rainwise IP-100,2013-01-16 21:16:00,
2013-01-16 16:21:00,62.4,36.0,29.55,SSW,202,4.0,-999.0,36,0.00,,,0.00,Rainwise IP-100,2013-01-16 21:21:00,
2013-01-16 16:26:00,62.6,35.0,29.54,SSE,157,3.3,-999.0,35,0.00,,,0.00,Rainwise IP-100,2013-01-16 21:26:00,
2013-01-16 16:31:00,62.9,35.0,29.54,SSW,202,1.6,-999.0,34,0.00,,,0.00,Rainwise IP-100,2013-01-16 21:31:00,
2013-01-16 16:36:00,63.5,33.0,29.53,ESE,112,1.4,-999.0,32,0.00,,,0.00,Rainwise IP-100,2013-01-16 21:36:00,
2013-01-16 16:41:00,64.5,31.0,29.53,SE,135,2.8,-999.0,28,0.00,,,0.00,Rainwise IP-100,2013-01-16 21:41:00,
2013-01-16 16:46:00,65.2,29.0,29.53,ESE,112,5.4,-999.0,26,0.00,,,0.00,Rainwise IP-100,2013-01-16 21:46:00,
2013-01-16 16:51:00,65.4,29.0,29.53,ESE,112,2.6,-999.0,25,0.00,,,0.00,Rainwise IP-100,2013-01-16 21:51:00,
2013-01-16 16:56:00,65.6,28.0,29.52,South,180,4.4,-999.0,24,0.00,,,0.00,Rainwise IP-100,2013-01-16 21:56:00,
2013-01-16 17:01:00,65.9,29.0,29.52,NNE,22,4.0,-999.0,25,0.00,,,0.00,Rainwise IP-100,2013-01-16 22:01:00,
2013-01-16 17:06:00,66.4,26.0,29.52,ENE,67,3.7,-999.0,22,0.00,,,0.00,Rainwise IP-100,2013-01-16 22:06:00,
2013-01-16 17:11:00,66.7,26.0,29.52,East,90,6.1,-999.0,21,0.00,,,0.00,Rainwise IP-100,2013-01-16 22:11:00,
2013-01-16 17:16:00,67.0,24.0,29.52,NNE,22,5.4,-999.0,20,0.00,,,0.00,Rainwise IP-100,2013-01-16 22:16:00,
2013-01-16 17:21:00,67.0,24.0,29.52,East,90,6.8,-999.0,20,0.00,,,0.00,Rainwise IP-100,2013-01-16 22:21:00,
2013-01-16 17:26:00,67.0,24.0,29.52,ENE,67,5.4,-999.0,19,0.00,,,0.00,Rainwise IP-100,2013-01-16 22:26:00,
2013-01-16 17:31:00,67.0,24.0,29.52,ENE,67,2.8,-999.0,19,0.00,,,0.00,Rainwise IP-100,2013-01-16 22:31:00,
2013-01-16 17:36:00,67.2,24.0,29.51,NNE,22,2.6,-999.0,19,0.00,,,0.00,Rainwise IP-100,2013-01-16 22:36:00,
2013-01-16 17:41:00,67.4,24.0,29.51,NE,45,3.7,-999.0,19,0.00,,,0.00,Rainwise IP-100,2013-01-16 22:41:00,
2013-01-16 17:46:00,67.4,24.0,29.51,ENE,67,4.0,-999.0,19,0.00,,,0.00,Rainwise IP-100,2013-01-16 22:46:00,
2013-01-16 17:51:00,67.4,24.0,29.51,ENE,67,4.4,-999.0,19,0.00,,,0.00,Rainwise IP-100,2013-01-16 22:51:00,
2013-01-16 17:56:00,67.4,23.0,29.51,ENE,67,2.1,-999.0,18,0.00,,,0.00,Rainwise IP-100,2013-01-16 22:56:00,
2013-01-16 18:01:00,67.4,23.0,29.51,ENE,67,2.3,-999.0,18,0.00,,,0.00,Rainwise IP-100,2013-01-16 23:01:00,
2013-01-16 18:06:00,67.4,23.0,29.51,ESE,112,8.4,-999.0,18,0.00,,,0.00,Rainwise IP-100,2013-01-16 23:06:00,
2013-01-16 18:11:00,67.4,23.0,29.51,ENE,67,2.8,-999.0,18,0.00,,,0.00,Rainwise IP-100,2013-01-16 23:11:00,
2013-01-16 18:16:00,67.1,24.0,29.51,SSE,157,0.0,-999.0,19,0.00,,,0.00,Rainwise IP-100,2013-01-16 23:16:00,
2013-01-16 18:21:00,66.2,26.0,29.51,SSE,157,5.1,-999.0,22,0.00,,,0.00,Rainwise IP-100,2013-01-16 23:21:00,
2013-01-16 18:26:00,65.1,29.0,29.52,SSE,157,4.9,-999.0,25,0.00,,,0.00,Rainwise IP-100,2013-01-16 23:26:00,
2013-01-16 18:31:00,64.4,29.0,29.52,SSE,157,5.8,-999.0,26,0.00,,,0.00,Rainwise IP-100,2013-01-16 23:31:00,
2013-01-16 18:36:00,63.8,29.0,29.52,SSE,157,3.7,-999.0,26,0.00,,,0.00,Rainwise IP-100,2013-01-16 23:36:00,
2013-01-16 18:41:00,63.4,28.0,29.52,SSE,157,4.4,-999.0,26,0.00,,,0.00,Rainwise IP-100,2013-01-16 23:41:00,
2013-01-16 18:46:00,63.1,29.0,29.52,SSE,157,4.4,-999.0,27,0.00,,,0.00,Rainwise IP-100,2013-01-16 23:46:00,
2013-01-16 18:51:00,62.9,29.0,29.52,SSE,157,1.9,-999.0,27,0.00,,,0.00,Rainwise IP-100,2013-01-16 23:51:00,
2013-01-16 18:56:00,63.0,28.0,29.52,SSE,157,4.0,-999.0,26,0.00,,,0.00,Rainwise IP-100,2013-01-16 23:56:00,
2013-01-16 19:01:00,62.9,29.0,29.52,ESE,112,2.1,-999.0,27,0.00,,,0.00,Rainwise IP-100,2013-01-17 00:01:00,
2013-01-16 19:06:00,63.0,29.0,29.52,South,180,2.3,-999.0,28,0.00,,,0.00,Rainwise IP-100,2013-01-17 00:06:00,
2013-01-16 19:11:00,63.4,29.0,29.51,SSE,157,0.0,-999.0,27,0.00,,,0.00,Rainwise IP-100,2013-01-17 00:11:00,
2013-01-16 19:16:00,63.7,28.0,29.52,SSE,157,0.0,-999.0,26,0.00,,,0.00,Rainwise IP-100,2013-01-17 00:16:00,
2013-01-16 19:21:00,63.9,29.0,29.52,SSW,202,2.1,-999.0,27,0.00,,,0.00,Rainwise IP-100,2013-01-17 00:21:00,
2013-01-16 19:26:00,63.6,31.0,29.52,SSW,202,2.1,-999.0,29,0.00,,,0.00,Rainwise IP-100,2013-01-17 00:26:00,
2013-01-16 19:31:00,62.4,31.0,29.52,SW,225,1.6,-999.0,29,0.00,,,0.00,Rainwise IP-100,2013-01-17 00:31:00,
2013-01-16 19:36:00,60.7,29.0,29.52,WSW,247,1.4,-999.0,30,0.00,,,0.00,Rainwise IP-100,2013-01-17 00:36:00,
2013-01-16 19:41:00,58.7,29.0,29.52,WSW,247,3.3,-999.0,32,0.00,,,0.00,Rainwise IP-100,2013-01-17 00:41:00,
2013-01-16 19:46:00,56.6,29.0,29.53,WSW,247,0.0,-999.0,35,0.00,,,0.00,Rainwise IP-100,2013-01-17 00:46:00,
2013-01-16 19:51:00,54.9,32.0,29.53,WSW,247,1.6,-999.0,40,0.00,,,0.00,Rainwise IP-100,2013-01-17 00:51:00,
2013-01-16 19:56:00,53.5,32.0,29.52,WSW,247,2.1,-999.0,43,0.00,,,0.00,Rainwise IP-100,2013-01-17 00:56:00,
2013-01-16 20:01:00,52.0,32.0,29.53,WSW,247,0.0,-999.0,46,0.00,,,0.00,Rainwise IP-100,2013-01-17 01:01:00,
2013-01-16 20:06:00,50.6,32.0,29.53,WSW,247,1.6,-999.0,48,0.00,,,0.00,Rainwise IP-100,2013-01-17 01:06:00,
2013-01-16 20:11:00,49.4,32.0,29.53,WSW,247,1.2,-999.0,50,0.00,,,0.00,Rainwise IP-100,2013-01-17 01:11:00,
2013-01-16 20:16:00,48.3,32.0,29.52,WSW,247,1.4,-999.0,53,0.00,,,0.00,Rainwise IP-100,2013-01-17 01:16:00,
2013-01-16 20:21:00,47.3,32.0,29.52,WSW,247,1.6,-999.0,55,0.00,,,0.00,Rainwise IP-100,2013-01-17 01:21:00,
2013-01-16 20:26:00,46.4,32.0,29.52,WSW,247,1.9,-999.0,57,0.00,,,0.00,Rainwise IP-100,2013-01-17 01:26:00,
2013-01-16 20:31:00,45.7,32.0,29.52,WSW,247,0.0,-999.0,59,0.00,,,0.00,Rainwise IP-100,2013-01-17 01:31:00,
2013-01-16 20:36:00,45.1,32.0,29.52,WSW,247,2.1,-999.0,60,0.00,,,0.00,Rainwise IP-100,2013-01-17 01:36:00,
2013-01-16 20:41:00,44.4,31.0,29.52,WSW,247,2.1,-999.0,60,0.00,,,0.00,Rainwise IP-100,2013-01-17 01:41:00,
2013-01-16 20:46:00,43.8,32.0,29.52,WSW,247,2.3,-999.0,62,0.00,,,0.00,Rainwise IP-100,2013-01-17 01:46:00,
2013-01-16 20:51:00,43.0,32.0,29.51,WSW,247,3.0,-999.0,64,0.00,,,0.00,Rainwise IP-100,2013-01-17 01:51:00,
2013-01-16 20:56:00,42.4,32.0,29.52,WSW,247,1.9,-999.0,66,0.00,,,0.00,Rainwise IP-100,2013-01-17 01:56:00,
2013-01-16 21:01:00,42.2,32.0,29.52,WSW,247,1.2,-999.0,67,0.00,,,0.00,Rainwise IP-100,2013-01-17 02:01:00,
2013-01-16 21:06:00,42.0,32.0,29.52,WSW,247,0.0,-999.0,66,0.00,,,0.00,Rainwise IP-100,2013-01-17 02:06:00,
2013-01-16 21:11:00,41.8,32.0,29.52,WSW,247,1.6,-999.0,66,0.00,,,0.00,Rainwise IP-100,2013-01-17 02:11:00,
2013-01-16 21:16:00,41.4,31.0,29.52,WSW,247,1.9,-999.0,66,0.00,,,0.00,Rainwise IP-100,2013-01-17 02:16:00,
2013-01-16 21:21:00,41.2,31.0,29.52,WSW,247,1.9,-999.0,67,0.00,,,0.00,Rainwise IP-100,2013-01-17 02:21:00,
2013-01-16 21:26:00,41.1,31.0,29.52,WSW,247,1.2,-999.0,67,0.00,,,0.00,Rainwise IP-100,2013-01-17 02:26:00,
2013-01-16 21:31:00,41.1,31.0,29.52,WSW,247,0.0,-999.0,67,0.00,,,0.00,Rainwise IP-100,2013-01-17 02:31:00,
2013-01-16 21:36:00,40.7,31.0,29.52,WSW,247,2.6,-999.0,67,0.00,,,0.00,Rainwise IP-100,2013-01-17 02:36:00,
2013-01-16 21:41:00,40.2,31.0,29.52,WSW,247,1.6,-999.0,68,0.00,,,0.00,Rainwise IP-100,2013-01-17 02:41:00,
2013-01-16 21:46:00,39.9,31.0,29.52,WSW,247,2.1,-999.0,69,0.00,,,0.00,Rainwise IP-100,2013-01-17 02:46:00,
2013-01-16 21:51:00,39.6,31.0,29.52,WSW,247,1.9,-999.0,69,0.00,,,0.00,Rainwise IP-100,2013-01-17 02:51:00,
2013-01-16 21:56:00,39.3,31.0,29.52,WSW,247,1.2,-999.0,70,0.00,,,0.00,Rainwise IP-100,2013-01-17 02:56:00,
2013-01-16 22:01:00,38.9,31.0,29.52,WSW,247,1.9,-999.0,72,0.00,,,0.00,Rainwise IP-100,2013-01-17 03:01:00,
2013-01-16 22:06:00,38.4,31.0,29.52,WSW,247,2.8,-999.0,73,0.00,,,0.00,Rainwise IP-100,2013-01-17 03:06:00,
2013-01-16 22:11:00,38.0,31.0,29.52,WSW,247,2.3,-999.0,74,0.00,,,0.00,Rainwise IP-100,2013-01-17 03:11:00,
2013-01-16 22:16:00,37.6,31.0,29.52,WSW,247,3.7,-999.0,75,0.00,,,0.00,Rainwise IP-100,2013-01-17 03:16:00,
2013-01-16 22:21:00,37.4,31.0,29.51,WSW,247,2.3,-999.0,76,0.00,,,0.00,Rainwise IP-100,2013-01-17 03:21:00,
2013-01-16 22:26:00,37.5,31.0,29.51,WSW,247,0.0,-999.0,76,0.00,,,0.00,Rainwise IP-100,2013-01-17 03:26:00,
2013-01-16 22:31:00,37.6,31.0,29.51,WSW,247,0.0,-999.0,75,0.00,,,0.00,Rainwise IP-100,2013-01-17 03:31:00,
2013-01-16 22:36:00,37.5,31.0,29.51,WSW,247,0.0,-999.0,75,0.00,,,0.00,Rainwise IP-100,2013-01-17 03:36:00,
2013-01-16 22:41:00,37.2,31.0,29.51,WSW,247,1.6,-999.0,75,0.00,,,0.00,Rainwise IP-100,2013-01-17 03:41:00,
2013-01-16 22:46:00,36.9,31.0,29.51,WSW,247,0.0,-999.0,76,0.00,,,0.00,Rainwise IP-100,2013-01-17 03:46:00,
2013-01-16 22:51:00,36.7,31.0,29.52,WSW,247,1.4,-999.0,76,0.00,,,0.00,Rainwise IP-100,2013-01-17 03:51:00,
2013-01-16 22:56:00,36.4,29.0,29.51,WSW,247,2.3,-999.0,76,0.00,,,0.00,Rainwise IP-100,2013-01-17 03:56:00,
2013-01-16 23:01:00,35.9,29.0,29.51,WSW,247,1.2,-999.0,77,0.00,,,0.00,Rainwise IP-100,2013-01-17 04:01:00,
2013-01-16 23:06:00,36.0,29.0,29.51,WSW,247,0.0,-999.0,78,0.00,,,0.00,Rainwise IP-100,2013-01-17 04:06:00,
2013-01-16 23:11:00,36.1,29.0,29.51,WSW,247,0.0,-999.0,78,0.00,,,0.00,Rainwise IP-100,2013-01-17 04:11:00,
2013-01-16 23:16:00,35.8,29.0,29.51,WSW,247,2.1,-999.0,78,0.00,,,0.00,Rainwise IP-100,2013-01-17 04:16:00,
2013-01-16 23:21:00,35.2,29.0,29.51,WSW,247,1.2,-999.0,79,0.00,,,0.00,Rainwise IP-100,2013-01-17 04:21:00,
2013-01-16 23:26:00,34.8,29.0,29.51,WSW,247,0.0,-999.0,80,0.00,,,0.00,Rainwise IP-100,2013-01-17 04:26:00,
2013-01-16 23:31:00,34.7,29.0,29.51,WSW,247,2.8,-999.0,80,0.00,,,0.00,Rainwise IP-100,2013-01-17 04:31:00,
2013-01-16 23:36:00,34.7,29.0,29.51,WSW,247,0.0,-999.0,81,0.00,,,0.00,Rainwise IP-100,2013-01-17 04:36:00,
2013-01-16 23:41:00,34.8,29.0,29.51,WSW,247,0.0,-999.0,81,0.00,,,0.00,Rainwise IP-100,2013-01-17 04:41:00,
2013-01-16 23:46:00,34.8,29.0,29.51,WSW,247,0.0,-999.0,81,0.00,,,0.00,Rainwise IP-100,2013-01-17 04:46:00,
2013-01-16 23:51:00,34.6,29.0,29.51,WSW,247,0.0,-999.0,81,0.00,,,0.00,Rainwise IP-100,2013-01-17 04:51:00,
2013-01-16 23:56:00,34.3,29.0,29.51,WSW,247,0.0,-999.0,81,0.00,,,0.00,Rainwise IP-100,2013-01-17 04:56:00,